This demonstration page uses our WeatherBlox Daily Observations layout. Learn more.

Left ArrowRight Arrow

39.12711, -84.51439

Hourly Observations for July 9, 2021

Temp ( °F °C ) Dew Point ( °F °C ) Humidity (%) Winds ( mph kmh ) Pressure ( in mb ) Visibility ( mi km ) Precip ( " mm )
12:53 am 00:53 Mostly Clear 70 21.1 67 19.4 90 90 SSW 6 9 29.90 1013 10 16 N/A
1:31 am 01:31 Mostly Cloudy 71 21.7 67 19.4 87 87 WSW 3 6 29.91 1013 10 16 N/A
1:53 am 01:53 Cloudy 73 22.8 68 20 84 84 W 6 9 29.91 1013 10 16 N/A
2:22 am 02:22 Mostly Cloudy 73 22.8 69 20.6 87 87 NW 6 9 29.90 1013 10 16 N/A
2:53 am 02:53 Mostly Cloudy 73 22.8 69 20.6 87 87 N N/A 29.91 1013 10 16 N/A
3:50 am 03:50 Cloudy 73 23 66 19 78 78 NNW 7 11 29.92 1013 10 16 N/A
3:53 am 03:53 Cloudy 73 22.8 66 18.9 79 79 NNW 10 17 29.93 1013 10 16 N/A
4:53 am 04:53 Mostly Cloudy 71 21.7 65 18.3 81 81 NW 8 13 29.93 1014 10 16 N/A
5:28 am 05:28 Mostly Cloudy 70 21.1 63 17.2 79 79 NNW 10 17 29.95 1014 10 16 N/A
5:53 am 05:53 Cloudy 69 20.6 63 17.2 81 81 N 6 9 29.95 1014 10 16 N/A
6:38 am 06:38 Mostly Cloudy 68 20 62 16.7 81 81 NNW 7 11 29.97 1015 10 16 N/A
6:53 am 06:53 Mostly Cloudy 68 20 61 16.1 78 78 NW 7 11 29.97 1015 10 16 N/A
7:53 am 07:53 Mostly Cloudy 68 20 60 15.6 76 76 NW 12 19 30.00 1016 10 16 N/A
8:15 am 08:15 Partly Cloudy 67 19.4 58 14.4 73 73 WNW 8 13 30.01 1016 10 16 N/A
8:53 am 08:53 Mostly Sunny 68 20 56 13.3 65 65 WNW 13 20 30.02 1017 10 16 N/A
9:53 am 09:53 Partly Cloudy 70 21.1 57 13.9 64 64 NW 7 11 30.03 1017 10 16 N/A
10:53 am 10:53 Mostly Sunny 71 21.7 57 13.9 61 61 WNW 8 13 30.04 1017 10 16 N/A
11:53 am 11:53 Partly Cloudy 72 22.2 59 15 64 64 NNW 8 13 30.06 1018 10 16 N/A
12:53 pm 12:53 Partly Cloudy 72 22.2 59 15 64 64 undefined N/A 30.07 1018 10 16 N/A
1:53 pm 13:53 Partly Cloudy 74 23.3 59 15 60 60 VRB 6 9 30.07 1018 10 16 N/A
2:53 pm 14:53 Mostly Sunny 76 24.4 59 15 56 56 NNW 6 9 30.05 1018 10 16 N/A
3:53 pm 15:53 Partly Cloudy 75 23.9 59 15 58 58 N 6 9 30.02 1017 10 16 N/A
4:53 pm 16:53 Mostly Sunny 74 23.3 60 15.6 62 62 NNW 5 7 30.03 1017 10 16 N/A
5:53 pm 17:53 Sunny 73 22.8 60 15.6 64 64 N 6 9 30.02 1017 10 16 N/A
6:53 pm 18:53 Sunny 73 22.8 60 15.6 64 64 WNW 8 13 30.04 1017 10 16 N/A
7:53 pm 19:53 Sunny 73 22.8 60 15.6 64 64 NNW 6 9 30.06 1018 10 16 N/A
8:53 pm 20:53 Sunny 70 21.1 59 15 68 68 NNW 7 11 30.06 1018 10 16 N/A
9:53 pm 21:53 Clear 69 20.6 59 15 70 70 NW 5 7 30.07 1018 10 16 N/A
10:53 pm 22:53 Clear 64 17.8 60 15.6 87 87 N N/A 30.09 1019 10 16 N/A
11:53 pm 23:53 Clear 64 17.8 60 15.6 87 87 N N/A 30.08 1019 10 16 N/A

Powered by AerisWeather